Location: Saint-Palais-sur-Mer
(45.6429°N, 1.0859°W)
Time: 00:40:27
(UTC+01:00)

Tiros 1 despin weight - Pass Details

Date: 09 February 2026
Orbit: 556 x 593 km, 48.2° (Epoch: 13 March)

Event Time Altitude Azimuth Distance (km) Brightness Sun altitude
Rises 22:44:42 0° 282° (WNW) 2,738 ? -45.1°
Enters shadow 22:44:44 - 282° (WNW) 2,729 ? -45.1°
Reaches altitude 10° 22:46:58 10° 285° (WNW) 1,846 - -45.4°
Maximum altitude 22:51:09 64° 8° (N) 623 - -46.1°
Drops below altitude 10° 22:55:23 10° 90° (E) 1,863 - -46.7°
Sets 22:57:41 0° 94° (E) 2,766 - -47.0°
